sat.trackr.live / text

‹ back to catalog

STARLINK-30352

NORAD 57736 · 2023-131E

PAYLOAD ACTIVE UNKNOWN

§ Identity

Operator
Country
US
Launch date
2023-09-01
Launch site
AFETR
Launch vehicle
Mass (kg)
RCS (m²)

Purposes: comms

External: N2YO · Heavens-Above · Gunter

§ Orbital elements

Epoch: 2026-05-24T22:55:11.885952Z

Period
94.32 min
Inclination
43.0059°
Eccentricity
0.0001176
Mean motion
15.26741205 rev/d
Perigee alt
484.8 km
Apogee alt
486.4 km
Semi-major
6,863.7 km
B*
1.8862e-5
RAAN
109.1175°
Arg perigee
272.5313°
Mean anomaly
87.5404°
Rev number
15,149

§ Raw data

STARLINK-303521 57736U 23131E   26144.95499868  .00000246  00000+0  18862-4 0  99932 57736  43.0059 109.1175 0001176 272.5313  87.5404 15.26741205151494

JSON: /api/v1/satellites/57736 · /tle

For live sub-satellite position, see the globe view (requires WebGL).

§ Visibility from observer

Set your observer location to see the next 7 days of passes ≥ 10°. The values pass through the URL so the page stays shareable.

No JS? Fill the form by hand. The geolocation button needs JavaScript.